Location: Stillwell
(40.4602°N, 82.0928°W)
Time: 12:18:44
(UTC-04:00)

ERS-1 Rocket - Pass Details

Date: 25 May 2018
Orbit: 754 x 757 km, 98.5° (Epoch: 15 October)

Event Time Altitude Azimuth Distance (km) Brightness Sun altitude
Exits shadow 22:07:31 19° 136° (SE) 1,736 4.2 -13.2°
Maximum altitude 22:10:49 47° 71° (ENE) 1,002 3.4 -13.6°
Drops below altitude 10° 22:15:37 10° 359° (N) 2,289 6.1 -14.3°
Sets 22:17:59 0° 353° (N) 3,218 7.1 -14.6°
